GEFSSGP_con_cape1000_222.txt.gz
Probability
0 0 0 0 0 0 0 0 0 0 0 0 0 0 0 0 0 0 0 0 0 6 23 39 61 61 58 55 55 55 48 45 42 48 45 45 48 52 48 39 32 29 29 32 26 23 16 16 13
0 0 0 0 0 0 0 0 0 0 0 0 0 0 0 0 0 0 0 0 0 6 23 32 55 55 55 55 55 52 52 45 42 39 42 39 39 39 39 39 35 32 23 23 23 23 26 19 19
0 0 0 0 0 0 0 0 0 0 0 0 0 0 0 0 0 0 0 0 3 10 23 32 52 55 55 52 52 52 48 45 39 39 35 32 35 39 32 35 32 29 19 19 23 16 19 23 19
0 0 0 0 0 0 0 0 0 0 0 0 0 0 0 0 0 0 0 3 3 13 23 32 55 48 48 52 48 48 48 39 39 39 39 35 35 32 32 32 26 29 19 19 23 23 16 19 16
0 0 0 0 0 0 0 0 0 0 0 0 0 0 0 0 0 0 0 0 3 6 19 23 55 48 42 45 45 42 39 35 35 35 35 32 32 29 32 32 29 19 13 16 19 19 23 23 19
0 0 0 0 0 0 0 0 0 0 0 0 0 0 0 0 0 0 0 0 6 10 13 23 32 45 42 39 35 35 32 29 35 35 35 29 29 29 26 29 26 16 16 13 13 16 26 19 19
0 0 0 0 0 0 0 0 0 0 0 0 0 0 0 0 0 0 0 10 6 6 13 19 23 23 35 39 39 35 32 29 29 29 35 35 29 29 26 26 23 19 13 16 16 16 19 16 13
0 0 0 0 0 0 0 0 0 0 0 0 0 0 0 0 0 0 0 10 13 13 13 13 19 19 23 19 19 19 19 23 26 26 19 13 13 19 19 13 19 16 13 10 10 10 16 13 16
0 0 0 0 0 0 0 0 0 0 0 0 0 0 0 0 0 3 6 13 16 19 16 16 19 23 19 16 13 13 3 3 6 10 6 3 16 10 13 3 3 16 13 13 6 10 10 3 3
0 0 0 0 0 0 0 0 0 0 0 0 0 0 0 0 0 0 3 6 10 13 19 19 13 23 23 19 19 16 13 16 16 19 16 19 19 10 3 3 3 3 3 0 6 3 3 0 6
0 0 0 0 0 0 0 0 0 0 0 0 0 0 0 0 0 0 0 0 0 10 13 13 13 16 19 26 23 19 10 16 16 16 16 16 16 16 10 10 6 3 0 0 0 0 3 0 10
0 0 0 0 0 0 0 0 0 0 0 0 0 0 0 0 0 0 0 0 0 0 13 13 13 16 19 19 19 19 10 13 10 13 16 16 19 13 13 16 13 16 16 16 13 13 6 0 3
0 0 0 0 0 0 0 0 0 0 0 0 0 0 0 0 0 0 0 0 0 0 6 13 13 13 13 16 19 19 10 10 10 13 16 16 16 10 6 10 16 10 10 16 16 10 3 3 3
0 0 0 0 0 0 0 0 0 0 0 0 0 0 0 0 0 0 0 0 0 0 0 10 13 13 13 13 19 13 10 10 6 10 10 19 19 13 6 6 13 10 10 10 10 10 10 10 6
0 0 0 0 0 0 0 0 0 0 0 0 0 0 0 0 0 0 0 0 0 0 0 0 3 6 10 10 13 10 13 6 6 6 6 13 16 16 13 10 13 13 6 6 10 6 13 10 6
0 0 0 0 0 0 0 0 0 0 0 0 0 0 0 0 0 0 0 0 0 0 0 0 0 0 6 10 10 3 10 6 6 6 6 6 6 3 10 13 13 10 13 16 13 10 6 0 0
0 0 0 0 0 0 0 0 0 0 0 0 0 0 0 0 0 0 0 0 0 0 0 0 0 0 3 3 3 3 3 6 6 6 3 3 3 3 3 3 6 6 13 13 0 3 3 0 0
0 0 0 0 0 0 0 0 0 0 0 0 0 0 0 0 0 0 0 0 0 0 0 0 0 0 3 3 3 3 3 0 3 3 3 3 6 3 3 3 3 3 0 3 0 3 3 3 0
0 0 0 0 0 0 0 0 0 0 0 0 0 0 0 0 0 0 0 0 0 0 0 0 0 0 3 3 3 3 3 0 0 3 0 3 3 3 3 3 3 0 0 0 0 3 0 0 0
0 0 0 0 0 0 0 0 0 0 0 0 0 0 0 0 0 0 0 0 0 0 0 0 0 0 0 3 3 3 3 3 3 3 0 3 3 3 0 3 3 0 0 0 0 0 0 0 0
0 0 0 0 0 0 0 0 0 0 0 0 0 0 0 0 0 0 0 0 0 0 0 0 0 0 0 3 3 3 3 0 0 3 3 3 3 0 0 0 0 0 0 0 0 0 0 0 0
0 0 0 0 0 0 0 0 0 0 0 0 0 0 0 0 0 0 0 0 0 0 0 0 0 0 0 0 3 3 3 0 3 3 6 3 3 0 0 0 0 0 0 0 0 0 0 0 0
0 0 0 0 0 0 0 0 0 0 0 0 0 0 0 0 0 0 0 0 0 0 0 0 0 0 0 0 3 3 3 6 6 3 3 3 0 0 0 0 0 0 0 0 0 0 0 0 0
0 0 0 0 0 0 0 0 0 0 0 0 0 0 0 0 0 0 0 0 0 0 0 0 0 0 0 3 3 3 3 6 3 0 0 0 0 0 0 0 0 0 0 0 0 0 0 0 0
0 0 0 0 0 0 0 0 0 0 0 0 0 0 0 0 0 0 0 0 0 0 0 0 0 0 0 0 0 3 0 0 0 0 0 0 0 0 0 0 0 0 0 0 0 0 0 0 0
0 0 0 0 0 0 0 0 0 0 0 0 0 0 0 0 0 0 0 0 0 0 0 0 0 0 0 0 0 0 0 0 0 0 0 0 0 0 0 0 0 0 0 0 0 0 0 0 0
0 0 0 0 0 0 0 0 0 0 0 0 0 0 0 0 0 0 0 0 0 0 0 0 0 0 0 0 0 0 0 0 0 0 0 0 0 0 0 0 0 0 0 0 0 0 0 0 0
0 0 0 0 0 0 0 0 0 0 0 0 0 0 0 0 0 0 0 0 0 0 0 0 0 0 0 0 0 0 0 0 0 0 0 0 0 0 0 0 0 0 0 0 0 0 0 0 0
0 0 0 0 0 0 0 0 0 0 0 0 0 0 0 0 0 0 0 0 0 0 0 0 0 0 0 0 0 0 0 0 0 0 0 0 0 0 0 0 0 0 0 0 0 0 0 0 0
0 0 0 0 0 0 0 0 0 0 0 0 0 0 0 0 0 0 0 0 0 0 0 0 0 0 0 0 0 0 0 0 0 0 0 0 0 0 0 0 0 0 0 0 0 0 0 0 0

GEFSSGP_con_cape1000_228.txt.gz
Probability
0 0 0 0 0 0 0 0 0 0 0 0 0 0 0 0 0 0 0 6 13 29 42 48 65 58 52 55 58 61 58 55 52 52 45 48 48 48 45 42 39 29 29 32 19 16 13 16 6
0 0 0 0 0 0 0 0 0 0 0 0 0 0 0 0 0 0 3 0 16 39 35 42 61 55 55 52 52 52 55 48 42 42 39 39 39 42 42 32 32 26 26 23 26 16 13 13 13
0 0 0 0 0 0 0 0 0 0 0 0 0 0 0 0 0 0 0 0 10 29 35 48 58 52 52 48 48 52 52 39 42 42 42 39 39 39 32 32 32 29 29 26 23 23 23 23 16
0 0 0 0 0 0 0 0 0 0 0 0 0 0 0 0 0 0 0 0 10 32 35 42 58 52 52 52 45 45 45 39 39 35 35 35 32 32 26 26 26 19 26 23 23 19 23 23 23
0 0 0 0 0 0 0 0 0 0 0 0 0 0 0 0 0 0 0 0 10 26 32 35 52 48 45 48 45 45 45 35 35 35 29 32 32 32 29 29 26 23 16 13 13 13 16 19 16
0 0 0 0 0 0 0 0 0 0 0 0 0 0 0 0 0 0 0 3 13 19 39 39 48 48 48 48 45 42 42 32 29 32 32 29 32 29 29 29 26 23 16 10 10 13 19 19 13
0 0 0 0 0 0 0 0 0 0 0 0 0 0 0 0 0 0 0 10 3 13 29 23 32 39 45 45 42 39 39 29 26 26 29 29 29 29 29 29 26 23 23 10 10 19 16 19 19
0 0 0 0 0 0 0 0 0 0 0 0 0 0 0 0 0 0 3 3 3 10 16 19 19 19 29 26 32 29 29 26 26 26 23 19 16 19 19 23 29 23 26 16 10 13 13 23 13
0 0 0 0 0 0 0 0 0 0 0 0 0 0 0 0 0 0 3 3 3 3 10 13 16 19 19 16 19 16 16 19 23 16 3 3 3 3 6 6 6 19 23 19 13 13 10 0 0
0 0 0 0 0 0 0 0 0 0 0 0 0 0 0 0 0 0 3 3 3 3 3 6 6 10 16 19 6 10 6 3 3 6 3 3 3 3 3 3 3 6 13 13 19 16 3 0 0
0 0 0 0 0 0 0 0 0 0 0 0 0 0 0 0 0 0 0 3 6 6 3 3 10 10 10 10 6 10 10 6 3 6 6 3 0 3 0 0 0 0 3 3 0 3 0 0 0
0 0 0 0 0 0 0 0 0 0 0 0 0 0 0 0 0 0 0 0 0 3 6 3 3 6 13 10 6 6 3 10 6 10 6 3 0 3 6 6 3 3 0 0 0 0 0 0 0
0 0 0 0 0 0 0 0 0 0 0 0 0 0 0 0 0 0 0 0 0 3 6 3 3 10 10 10 10 10 6 3 6 6 6 6 6 3 10 6 6 6 3 3 6 0 0 0 0
0 0 0 0 0 0 0 0 0 0 0 0 0 0 0 0 0 0 0 0 0 0 3 6 6 10 10 13 10 6 3 3 3 3 3 6 6 6 3 3 3 6 6 6 3 3 0 0 0
0 0 0 0 0 0 0 0 0 0 0 0 0 0 0 0 0 0 0 0 0 0 3 3 6 6 10 10 10 10 3 0 0 3 3 3 3 6 6 3 3 3 3 0 0 0 0 0 0
0 0 0 0 0 0 0 0 0 0 0 0 0 0 0 0 0 0 0 0 0 0 0 3 3 3 6 6 6 6 6 3 3 3 3 3 3 3 3 3 3 3 3 0 0 0 0 0 0
0 0 0 0 0 0 0 0 0 0 0 0 0 0 0 0 0 0 0 0 0 0 0 0 3 3 3 3 6 10 3 3 6 3 0 0 3 3 3 3 3 3 3 0 0 0 0 0 0
0 0 0 0 0 0 0 0 0 0 0 0 0 0 0 0 0 0 0 0 0 0 0 0 0 0 3 3 3 0 0 0 0 3 3 0 3 3 3 3 0 0 3 0 0 0 0 0 0
0 0 0 0 0 0 0 0 0 0 0 0 0 0 0 0 0 0 0 0 0 0 0 0 0 0 3 0 0 0 0 0 0 3 3 0 0 3 3 3 0 3 3 0 0 0 0 0 0
0 0 0 0 0 0 0 0 0 0 0 0 0 0 0 0 0 0 0 0 0 0 0 0 0 0 0 0 0 0 0 0 0 0 0 0 0 3 3 3 3 0 0 0 0 0 0 0 0
0 0 0 0 0 0 0 0 0 0 0 0 0 0 0 0 0 0 0 0 0 0 0 0 0 0 0 0 0 0 0 0 0 0 0 0 0 0 3 3 0 0 0 0 0 0 0 0 0
0 0 0 0 0 0 0 0 0 0 0 0 0 0 0 0 0 0 0 0 0 0 0 0 0 0 0 0 0 0 0 0 0 0 0 0 0 0 3 0 0 0 0 0 0 0 0 0 0
0 0 0 0 0 0 0 0 0 0 0 0 0 0 0 0 0 0 0 0 0 0 0 0 0 0 0 0 0 0 0 0 0 0 0 0 0 0 0 0 0 0 0 0 0 0 0 0 0
0 0 0 0 0 0 0 0 0 0 0 0 0 0 0 0 0 0 0 0 0 0 0 0 0 0 0 0 0 0 0 0 0 0 0 0 0 0 0 0 0 0 0 0 0 0 0 0 0
0 0 0 0 0 0 0 0 0 0 0 0 0 0 0 0 0 0 0 0 0 0 0 0 0 0 0 0 0 0 0 0 0 0 0 0 0 0 0 0 0 0 0 0 0 0 0 0 0
0 0 0 0 0 0 0 0 0 0 0 0 0 0 0 0 0 0 0 0 0 0 0 0 0 0 0 0 0 0 0 0 0 0 0 0 0 0 0 0 0 0 0 0 0 0 0 0 0
0 0 0 0 0 0 0 0 0 0 0 0 0 0 0 0 0 0 0 0 0 0 0 0 0 0 0 0 0 0 0 0 0 0 0 0 0 0 0 0 0 0 0 0 0 0 0 0 0
0 0 0 0 0 0 0 0 0 0 0 0 0 0 0 0 0 0 0 0 0 0 0 0 0 0 0 0 0 0 0 0 0 0 0 0 0 0 0 0 0 0 0 0 0 0 0 0 0
0 0 0 0 0 0 0 0 0 0 0 0 0 0 0 0 0 0 0 0 0 0 0 0 0 0 0 0 0 0 0 0 0 0 0 0 0 0 0 0 0 0 0 0 0 0 0 0 0
0 0 0 0 0 0 0 0 0 0 0 0 0 0 0 0 0 0 0 0 0 0 0 0 0 0 0 0 0 0 0 0 0 0 0 0 0 0 0 0 0 0 0 0 0 0 0 0 0

GEFSSGP_con_cape1000_234.txt.gz
Probability
0 0 0 0 0 0 0 0 0 0 0 0 0 0 0 0 0 0 0 3 3 23 42 68 65 58 58 58 58 61 55 55 55 52 48 45 42 39 39 35 32 29 29 23 19 19 16 16 10
0 0 0 0 0 0 0 0 0 0 0 0 0 0 0 0 0 0 3 6 13 29 45 55 68 55 55 55 58 58 55 52 48 45 45 42 42 39 39 29 26 23 32 19 16 16 16 16 10
0 0 0 0 0 0 0 0 0 0 0 0 0 0 0 0 0 0 6 16 19 29 35 52 68 58 55 55 55 55 52 45 45 42 42 39 39 35 35 29 23 23 26 23 16 16 13 13 10
0 0 0 0 0 0 0 0 0 0 0 0 0 0 0 0 0 0 10 16 19 29 32 48 61 55 55 55 52 52 45 45 39 35 35 35 35 32 32 32 26 26 23 23 19 16 16 13 10
0 0 0 0 0 0 0 0 0 0 0 0 0 0 0 0 0 10 16 19 23 26 32 45 55 55 55 52 48 48 45 35 32 35 35 39 35 35 35 32 29 26 26 19 23 16 13 13 10
0 0 0 0 0 0 0 0 0 0 0 0 0 0 0 0 0 10 16 19 19 32 35 45 58 52 48 48 48 48 45 35 32 32 35 32 32 26 29 32 26 29 26 23 23 13 13 13 10
0 0 0 0 0 0 0 0 0 0 0 0 0 0 0 0 0 6 13 16 16 26 32 39 39 45 52 48 48 45 45 42 35 32 29 29 32 29 23 29 32 26 23 23 19 19 16 16 10
0 0 0 0 0 0 0 0 0 0 0 0 0 0 0 0 0 0 10 13 16 16 32 32 35 35 39 45 42 39 39 35 29 26 23 19 26 29 23 23 23 26 26 23 23 13 16 13 13
0 0 0 0 0 0 0 0 0 0 0 0 0 0 0 0 0 0 6 13 13 6 3 19 29 35 35 35 32 32 32 26 26 23 19 13 13 13 19 10 16 19 23 19 19 16 13 6 3
0 0 0 0 0 0 0 0 0 0 0 0 0 0 0 0 0 3 6 13 10 6 3 3 6 10 16 29 23 19 19 16 16 6 3 3 3 3 6 3 0 13 13 16 19 16 3 0 0
0 0 0 0 0 0 0 0 0 0 0 0 0 0 0 0 0 0 3 6 10 6 3 6 3 3 6 10 6 3 3 3 3 3 3 3 3 3 0 0 0 0 0 3 6 3 0 0 0
0 0 0 0 0 0 0 0 0 0 0 0 0 0 0 0 0 0 3 3 6 3 3 3 3 3 3 3 3 3 3 3 3 3 3 3 3 0 0 0 0 0 0 0 0 0 0 0 0
0 0 0 0 0 0 0 0 0 0 0 0 0 0 0 0 0 0 0 0 3 3 3 3 3 3 3 3 3 3 3 3 3 3 3 3 0 0 0 0 0 0 0 0 0 0 0 0 0
0 0 0 0 0 0 0 0 0 0 0 0 0 0 0 0 0 0 0 0 0 6 3 3 3 3 3 3 3 3 3 3 3 3 3 0 0 0 0 0 0 0 0 0 0 0 0 0 0
0 0 0 0 0 0 0 0 0 0 0 0 0 0 0 0 0 0 0 0 0 3 3 3 3 3 3 3 0 0 0 0 0 0 0 0 0 0 0 0 0 0 0 0 0 0 0 0 0
0 0 0 0 0 0 0 0 0 0 0 0 0 0 0 0 0 0 0 0 0 0 3 3 3 3 3 3 0 0 0 0 0 0 0 0 0 0 0 0 0 0 0 0 0 0 0 0 0
0 0 0 0 0 0 0 0 0 0 0 0 0 0 0 0 0 0 0 0 0 0 0 3 3 3 6 3 3 3 0 3 0 0 0 0 0 0 0 0 0 0 0 0 0 0 0 0 0
0 0 0 0 0 0 0 0 0 0 0 0 0 0 0 0 0 0 0 0 0 0 0 0 3 3 3 3 3 3 0 3 3 3 3 0 0 0 0 0 0 0 0 0 0 0 0 0 0
0 0 0 0 0 0 0 0 0 0 0 0 0 0 0 0 0 0 0 0 0 0 0 0 0 0 3 0 0 0 0 0 3 3 3 3 3 0 0 0 0 0 0 0 0 0 0 0 0
0 0 0 0 0 0 0 0 0 0 0 0 0 0 0 0 0 0 0 0 0 0 0 0 0 0 0 0 0 0 0 0 0 0 3 3 3 0 0 0 0 0 0 0 0 0 0 0 0
0 0 0 0 0 0 0 0 0 0 0 0 0 0 0 0 0 0 0 0 0 0 0 0 0 0 0 0 0 0 0 0 0 0 0 0 0 0 0 0 0 0 0 0 0 0 0 0 0
0 0 0 0 0 0 0 0 0 0 0 0 0 0 0 0 0 0 0 0 0 0 0 0 0 0 0 0 0 0 0 0 0 0 0 0 0 0 0 0 0 0 0 0 0 0 0 0 0
0 0 0 0 0 0 0 0 0 0 0 0 0 0 0 0 0 0 0 0 0 0 0 0 0 0 0 0 0 0 0 0 0 0 0 0 0 0 0 0 0 0 0 0 0 0 0 0 0
0 0 0 0 0 0 0 0 0 0 0 0 0 0 0 0 0 0 0 0 0 0 0 0 0 0 0 0 0 0 0 0 0 0 0 0 0 0 0 0 0 0 0 0 0 0 0 0 0
0 0 0 0 0 0 0 0 0 0 0 0 0 0 0 0 0 0 0 0 0 0 0 0 0 0 0 0 0 0 0 0 0 0 0 0 0 0 0 0 0 0 0 0 0 0 0 0 0
0 0 0 0 0 0 0 0 0 0 0 0 0 0 0 0 0 0 0 0 0 0 0 0 0 0 0 0 0 0 0 0 0 0 0 0 0 0 0 0 0 0 0 0 0 0 0 0 0
0 0 0 0 0 0 0 0 0 0 0 0 0 0 0 0 0 0 0 0 0 0 0 0 0 0 0 0 0 0 0 0 0 0 0 0 0 0 0 0 0 0 0 0 0 0 0 0 0
0 0 0 0 0 0 0 0 0 0 0 0 0 0 0 0 0 0 0 0 0 0 0 0 0 0 0 0 0 0 0 0 0 0 0 0 0 0 0 0 0 0 0 0 0 0 0 0 0
0 0 0 0 0 0 0 0 0 0 0 0 0 0 0 0 0 0 0 0 0 0 0 0 0 0 0 0 0 0 0 0 0 0 0 0 0 0 0 0 0 0 0 0 0 0 0 0 0
0 0 0 0 0 0 0 0 0 0 0 0 0 0 0 0 0 0 0 0 0 0 0 0 0 0 0 0 0 0 0 0 0 0 0 0 0 0 0 0 0 0 0 0 0 0 0 0 0

GEFSSGP_con_cape1000_240.txt.gz
Probability
0 0 0 0 0 0 0 0 0 0 0 0 0 0 0 0 0 0 0 0 0 13 32 55 65 68 65 65 61 58 55 52 52 52 45 39 39 32 35 32 29 23 19 19 16 13 13 10 10
0 0 0 0 0 0 0 0 0 0 0 0 0 0 0 0 0 0 0 0 3 19 39 55 61 61 55 55 61 58 55 48 42 42 39 39 39 35 32 32 23 26 19 16 23 16 13 6 0
0 0 0 0 0 0 0 0 0 0 0 0 0 0 0 0 0 3 3 0 10 26 35 48 61 58 52 52 52 48 48 45 42 39 39 35 35 35 32 32 26 23 16 13 16 16 16 10 3
0 0 0 0 0 0 0 0 0 0 0 0 0 0 0 0 0 3 3 6 13 19 35 48 58 52 52 52 52 52 45 39 39 39 35 39 35 35 29 32 26 26 19 16 16 16 16 13 6
0 0 0 0 0 0 0 0 0 0 0 0 0 0 0 0 0 3 3 13 16 23 39 48 61 52 52 52 52 52 45 42 39 35 35 35 32 32 29 29 23 26 26 16 16 16 16 13 10
0 0 0 0 0 0 0 0 0 0 0 0 0 0 0 0 3 6 16 16 26 29 45 48 58 55 52 52 52 48 48 45 42 42 32 29 32 32 26 19 19 19 19 26 19 13 13 13 10
0 0 0 0 0 0 0 0 0 0 0 0 0 0 0 3 6 10 19 16 23 26 35 39 52 52 52 52 52 52 48 48 48 39 35 29 29 29 32 19 23 23 23 23 19 13 10 10 10
0 0 0 0 0 0 0 0 0 0 0 0 0 0 0 3 10 13 16 16 16 26 35 35 35 42 45 42 48 42 42 42 39 29 26 19 19 26 26 19 23 23 23 19 19 16 10 6 10
0 0 0 0 0 0 0 0 0 0 0 0 0 0 0 3 13 13 16 19 19 26 26 26 26 26 35 35 39 35 35 35 26 19 16 13 13 16 10 6 10 16 16 16 23 16 10 0 0
0 0 0 0 0 0 0 0 0 0 0 0 0 0 0 6 13 16 16 16 23 23 26 23 26 23 19 19 23 23 23 16 16 13 13 6 6 3 3 3 3 6 6 10 13 6 0 0 0
0 0 0 0 0 0 0 0 0 0 0 0 0 0 0 3 16 16 23 16 16 10 16 16 13 16 16 13 13 13 13 13 6 3 0 3 3 0 0 0 0 0 3 0 0 0 0 0 0
0 0 0 0 0 0 0 0 0 0 0 0 0 0 0 6 13 16 13 13 6 10 13 16 10 10 10 6 10 3 13 6 3 0 0 0 3 3 0 0 0 0 0 0 0 0 0 0 0
0 0 0 0 0 0 0 0 0 0 0 0 0 0 0 3 6 10 13 10 3 3 3 6 3 6 6 3 3 3 3 3 0 0 0 0 0 0 0 0 0 0 0 0 0 0 0 0 0
0 0 0 0 0 0 0 0 0 0 0 0 0 0 0 0 0 0 3 10 0 0 0 0 3 3 3 3 3 3 3 3 0 0 0 0 0 0 0 0 0 0 0 0 0 0 0 0 0
0 0 0 0 0 0 0 0 0 0 0 0 0 0 0 0 0 0 0 0 0 0 0 0 3 3 3 3 3 3 3 3 3 0 0 0 0 0 0 0 0 0 0 0 0 0 0 0 0
0 0 0 0 0 0 0 0 0 0 0 0 0 0 0 0 0 0 0 0 0 0 0 0 0 3 3 3 3 3 3 3 3 0 0 0 0 0 0 0 0 0 0 0 0 0 0 0 0
0 0 0 0 0 0 0 0 0 0 0 0 0 0 0 0 0 0 0 0 0 0 0 0 0 0 3 3 3 0 3 3 3 3 0 0 0 0 0 0 0 0 0 0 0 0 0 0 0
0 0 0 0 0 0 0 0 0 0 0 0 0 0 0 0 0 0 0 0 0 0 0 0 0 0 0 0 0 0 0 3 3 3 0 0 0 0 0 0 0 0 0 0 0 0 0 0 0
0 0 0 0 0 0 0 0 0 0 0 0 0 0 0 0 0 0 0 0 0 0 0 0 0 0 0 0 0 0 0 3 3 3 3 0 0 0 0 0 0 0 0 0 0 0 0 0 0
0 0 0 0 0 0 0 0 0 0 0 0 0 0 0 0 0 0 0 0 0 0 0 0 0 0 0 0 0 0 0 3 3 3 0 0 0 0 0 0 0 0 0 0 0 0 0 0 0
0 0 0 0 0 0 0 0 0 0 0 0 0 0 0 0 0 0 0 0 0 0 0 0 0 0 0 0 0 0 0 0 0 0 0 0 0 0 0 0 0 0 0 0 0 0 0 0 0
0 0 0 0 0 0 0 0 0 0 0 0 0 0 0 0 0 0 0 0 0 0 0 0 0 0 0 0 0 0 0 0 0 0 0 0 0 0 0 0 0 0 0 0 0 0 0 0 0
0 0 0 0 0 0 0 0 0 0 0 0 0 0 0 0 0 0 0 0 0 0 0 0 0 0 0 0 0 0 0 0 0 0 0 0 0 0 0 0 0 0 0 0 0 0 0 0 0
0 0 0 0 0 0 0 0 0 0 0 0 0 0 0 0 0 0 0 0 0 0 0 0 0 0 0 0 0 0 0 0 0 0 0 0 0 0 0 0 0 0 0 0 0 0 0 0 0
0 0 0 0 0 0 0 0 0 0 0 0 0 0 0 0 0 0 0 0 0 0 0 0 0 0 0 0 0 0 0 0 0 0 0 0 0 0 0 0 0 0 0 0 0 0 0 0 0
0 0 0 0 0 0 0 0 0 0 0 0 0 0 0 0 0 0 0 0 0 0 0 0 0 0 0 0 0 0 0 0 0 0 0 0 0 0 0 0 0 0 0 0 0 0 0 0 0
0 0 0 0 0 0 0 0 0 0 0 0 0 0 0 0 0 0 0 0 0 0 0 0 0 0 0 0 0 0 0 0 0 0 0 0 0 0 0 0 0 0 0 0 0 0 0 0 0
0 0 0 0 0 0 0 0 0 0 0 0 0 0 0 0 0 0 0 0 0 0 0 0 0 0 0 0 0 0 0 0 0 0 0 0 0 0 0 0 0 0 0 0 0 0 0 0 0
0 0 0 0 0 0 0 0 0 0 0 0 0 0 0 0 0 0 0 0 0 0 0 0 0 0 0 0 0 0 0 0 0 0 0 0 0 0 0 0 0 0 0 0 0 0 0 0 0
0 0 0 0 0 0 0 0 0 0 0 0 0 0 0 0 0 0 0 0 0 0 0 0 0 0 0 0 0 0 0 0 0 0 0 0 0 0 0 0 0 0 0 0 0 0 0 0 0

GEFSSGP_con_cape1000_246.txt.gz
Probability
0 0 0 0 0 0 0 0 0 0 0 0 0 0 0 0 0 0 0 0 10 42 52 68 68 68 68 61 61 58 52 45 39 39 39 35 35 39 35 32 29 29 32 23 19 16 10 6 6
0 0 0 0 0 0 0 0 0 0 0 0 0 0 0 0 0 0 0 10 19 35 55 58 65 68 65 61 55 52 45 42 39 39 35 32 35 35 35 32 26 26 26 19 19 19 16 10 6
0 0 0 0 0 0 0 0 0 0 0 0 0 0 0 0 0 0 3 10 23 39 55 61 65 65 58 55 52 55 45 42 35 39 35 35 32 32 35 35 23 16 19 23 19 19 10 10 10
0 0 0 0 0 0 0 0 0 0 0 0 0 0 0 0 0 6 13 19 26 35 52 58 61 61 55 55 55 52 42 39 32 35 39 35 32 29 29 29 26 16 13 13 16 19 10 0 3
0 0 0 0 0 0 0 0 0 0 0 0 0 0 0 0 3 10 23 29 39 42 52 55 58 55 52 52 52 42 39 39 32 29 32 32 32 29 29 29 23 23 13 13 13 16 10 10 3
0 0 0 0 0 0 0 0 0 0 0 0 0 0 0 0 6 16 23 35 42 48 52 52 58 58 58 52 52 45 39 39 39 32 32 32 32 26 29 26 23 23 13 16 13 13 10 6 6
0 0 0 0 0 0 0 0 0 0 0 0 0 0 0 3 13 23 29 32 39 45 48 52 45 52 52 52 48 48 42 39 39 42 42 35 32 32 26 23 23 23 23 13 13 10 6 6 6
0 0 0 0 0 0 0 0 0 0 0 0 0 0 0 6 16 26 29 32 35 48 48 52 48 52 52 52 48 48 45 45 35 32 26 23 23 26 23 23 19 19 19 19 19 13 6 6 6
0 0 0 0 0 0 0 0 0 0 0 0 0 0 0 16 26 26 29 35 35 42 45 48 48 52 52 48 39 42 39 35 29 19 13 13 19 23 13 3 3 13 19 16 10 6 6 6 3
0 0 0 0 0 0 0 0 0 0 0 0 0 0 3 19 26 29 32 35 35 35 39 39 45 48 48 45 45 42 35 32 32 32 23 23 19 19 6 0 3 3 3 10 10 0 0 0 0
0 0 0 0 0 0 0 0 0 0 0 0 0 0 10 19 23 26 32 32 35 35 35 39 39 42 48 42 42 39 35 35 35 32 29 26 16 16 13 6 6 3 0 6 3 3 3 0 3
0 0 0 0 0 0 0 0 0 0 0 0 0 0 10 16 19 19 23 32 32 35 35 32 32 32 39 39 35 39 39 35 35 32 29 23 16 16 10 10 10 10 6 10 10 10 6 6 3
0 0 0 0 0 0 0 0 0 0 0 0 0 0 6 10 13 19 16 19 19 29 29 32 32 32 35 35 39 35 35 29 32 29 29 29 19 16 13 10 10 10 6 6 6 6 6 3 3
0 0 0 0 0 0 0 0 0 0 0 0 0 0 0 10 6 10 13 16 19 16 23 23 32 32 29 32 35 35 35 29 26 23 19 23 19 13 13 13 10 6 6 6 6 6 6 6 10
0 0 0 0 0 0 0 0 0 0 0 0 0 0 0 6 6 10 10 13 10 13 13 19 16 23 26 26 26 29 32 32 23 23 23 19 13 16 16 13 10 6 6 6 6 6 6 6 6
0 0 0 0 0 0 0 0 0 0 0 0 0 0 0 0 3 3 10 10 10 10 13 10 10 13 16 16 19 23 16 29 23 19 19 13 10 10 13 13 10 6 6 6 6 6 6 6 6
0 0 0 0 0 0 0 0 0 0 0 0 0 0 0 0 0 3 3 6 6 6 10 10 6 10 10 13 16 13 13 16 19 19 16 16 6 6 10 10 10 10 6 6 6 6 6 6 6
0 0 0 0 0 0 0 0 0 0 0 0 0 0 0 0 0 0 0 3 3 3 6 10 6 6 6 6 10 10 6 10 13 10 13 10 10 10 10 10 10 10 6 6 6 6 3 3 3
0 0 0 0 0 0 0 0 0 0 0 0 0 0 0 0 0 0 0 0 3 3 6 3 3 3 3 3 3 6 10 3 3 6 3 3 6 10 10 10 10 10 10 6 6 6 0 0 3
0 0 0 0 0 0 0 0 0 0 0 0 0 0 0 0 0 0 0 0 0 0 3 10 3 3 3 3 3 3 3 0 0 0 0 0 0 0 3 6 6 10 10 6 3 3 0 0 0
0 0 0 0 0 0 0 0 0 0 0 0 0 0 0 0 0 0 0 0 0 0 3 0 0 3 3 3 3 3 3 0 0 0 0 0 0 0 0 3 3 3 10 6 3 0 3 3 0
0 0 0 0 0 0 0 0 0 0 0 0 0 0 0 0 0 0 0 0 0 0 0 0 0 0 3 3 3 3 3 0 0 0 0 0 0 0 3 3 3 3 3 3 0 0 0 0 0
0 0 0 0 0 0 0 0 0 0 0 0 0 0 0 0 0 0 0 0 0 0 0 0 0 0 0 3 3 3 3 3 3 3 0 0 0 3 3 3 3 3 0 0 0 0 0 0 0
0 0 0 0 0 0 0 0 0 0 0 0 0 0 0 0 0 0 0 0 0 0 0 0 0 0 0 0 3 3 3 3 3 3 3 0 0 0 3 3 3 3 3 0 0 0 0 0 0
0 0 0 0 0 0 0 0 0 0 0 0 0 0 0 0 0 0 0 0 0 0 0 0 0 0 0 0 0 0 3 3 3 3 3 3 0 0 0 0 3 3 3 3 0 0 0 0 0
0 0 0 0 0 0 0 0 0 0 0 0 0 0 0 0 0 0 0 0 0 0 0 0 0 0 0 0 0 0 0 0 3 3 3 3 3 3 3 3 3 3 3 0 0 0 0 0 0
0 0 0 0 0 0 0 0 0 0 0 0 0 0 0 0 0 0 0 0 0 0 0 0 0 0 0 0 0 0 0 0 0 0 3 3 3 3 3 3 3 0 0 0 0 0 0 0 0
0 0 0 0 0 0 0 0 0 0 0 0 0 0 0 0 0 0 0 0 0 0 0 0 0 0 0 0 0 0 0 0 0 0 0 0 3 3 3 3 0 0 0 0 0 0 0 0 0
0 0 0 0 0 0 0 0 0 0 0 0 0 0 0 0 0 0 0 0 0 0 0 0 0 0 0 0 0 0 0 0 0 0 0 0 0 3 3 3 0 0 0 0 0 0 0 0 0
0 0 0 0 0 0 0 0 0 0 0 0 0 0 0 0 0 0 0 0 0 0 0 0 0 0 0 0 0 0 0 0 0 0 0 0 0 0 3 0 0 0 0 0 0 0 0 0 0

GEFSSGP_con_cape1000_252.txt.gz
Probability
0 0 0 0 0 0 0 0 0 0 0 0 0 0 0 0 0 6 6 32 52 55 58 71 77 71 65 65 65 61 58 55 48 39 39 35 32 32 29 29 29 26 19 13 13 13 13 10 6
0 0 0 0 0 0 0 0 0 0 0 0 0 0 0 0 0 0 10 35 52 52 52 65 71 71 68 65 61 55 52 45 45 42 39 39 32 32 29 32 32 19 19 13 16 13 13 10 6
0 0 0 0 0 0 0 0 0 0 0 0 0 0 0 0 0 0 13 39 48 45 52 65 68 68 65 58 55 45 42 42 42 39 39 39 39 32 35 29 29 19 23 26 13 6 10 10 6
0 0 0 0 0 0 0 0 0 0 0 0 0 0 0 0 0 10 19 35 35 48 52 61 65 65 61 58 55 45 35 35 39 39 32 35 39 39 32 32 26 26 29 23 13 6 6 6 6
0 0 0 0 0 0 0 0 0 0 0 0 0 0 0 3 10 13 16 29 35 52 55 55 58 55 55 55 45 42 32 29 29 29 32 26 29 29 32 35 26 23 23 19 10 10 3 3 0
0 0 0 0 0 0 0 0 0 0 0 0 0 0 3 3 13 16 23 29 39 52 55 55 55 55 55 55 45 39 39 32 29 29 32 32 26 29 26 23 26 19 16 16 6 6 6 3 0
0 0 0 0 0 0 0 0 0 0 0 0 0 0 0 3 16 19 26 32 39 48 48 39 48 48 55 55 48 45 42 35 32 32 32 32 35 35 23 23 26 23 16 13 13 6 3 3 3
0 0 0 0 0 0 0 0 0 0 0 0 0 0 0 13 19 23 23 35 39 45 42 42 42 42 39 35 42 39 39 39 32 32 19 19 26 23 23 19 23 19 19 13 10 10 6 3 3
0 0 0 0 0 0 0 0 0 0 0 0 3 0 3 19 19 23 32 35 35 39 45 39 39 35 39 35 29 32 32 29 23 19 16 6 6 6 10 10 10 16 16 10 13 10 6 3 3
0 0 0 0 0 0 0 0 0 0 0 0 0 16 19 19 23 23 32 35 35 39 39 39 42 39 39 29 26 26 26 19 13 10 6 6 6 6 0 0 0 6 10 10 10 10 3 0 0
0 0 0 0 0 0 0 0 0 0 0 0 0 10 16 19 19 23 26 35 35 35 39 35 35 32 29 26 23 29 32 23 16 13 6 6 6 0 0 0 0 0 0 0 0 0 0 0 0
0 0 0 0 0 0 0 0 0 0 0 0 0 3 16 16 19 23 26 29 35 32 29 32 32 26 26 26 23 23 23 26 29 19 13 6 3 0 3 3 0 0 0 0 0 0 0 0 0
0 0 0 0 0 0 0 0 0 0 0 0 0 6 13 16 16 13 19 26 23 26 26 29 35 26 26 26 29 23 16 19 23 13 10 10 3 3 3 0 0 3 0 0 0 0 0 0 0
0 0 0 0 0 0 0 0 0 0 0 0 0 3 6 6 16 13 13 19 19 23 19 23 26 26 29 26 13 16 13 13 13 13 13 6 3 0 3 0 0 0 3 3 3 0 0 0 0
0 0 0 0 0 0 0 0 0 0 0 0 0 0 0 6 10 10 13 13 13 13 10 13 16 16 23 26 16 10 6 3 13 13 10 3 3 3 0 0 0 3 3 3 3 0 0 0 0
0 0 0 0 0 0 0 0 0 0 0 0 0 0 0 3 6 6 13 13 13 13 13 13 13 16 13 16 16 10 6 6 6 6 3 0 0 0 3 0 0 0 0 0 0 0 0 0 0
0 0 0 0 0 0 0 0 0 0 0 0 0 0 0 0 3 0 3 13 13 13 13 6 13 10 10 10 10 6 3 3 6 6 0 0 0 0 0 0 0 0 0 0 0 0 0 0 0
0 0 0 0 0 0 0 0 0 0 0 0 0 0 0 0 0 0 3 6 6 6 6 3 10 6 3 3 6 6 3 3 3 3 3 3 0 0 0 3 3 0 0 0 0 0 0 0 0
0 0 0 0 0 0 0 0 0 0 0 0 0 0 0 0 0 3 3 6 6 6 6 6 3 0 0 0 6 6 3 0 0 0 0 0 0 0 6 6 3 3 0 0 0 0 0 0 0
0 0 0 0 0 0 0 0 0 0 0 0 0 0 0 0 0 3 3 3 3 6 6 6 6 3 0 0 3 0 0 0 0 0 0 0 0 0 3 3 0 0 0 0 0 0 0 0 0
0 0 0 0 0 0 0 0 0 0 0 0 0 0 0 0 0 0 0 3 0 0 3 3 3 0 0 3 3 3 3 0 0 0 0 0 0 0 0 0 0 0 0 0 0 0 0 0 0
0 0 0 0 0 0 0 0 0 0 0 0 0 0 0 0 0 0 0 0 0 0 0 3 0 0 0 3 3 3 0 0 0 0 0 0 0 0 0 0 0 0 0 0 0 0 0 0 0
0 0 0 0 0 0 0 0 0 0 0 0 0 0 0 0 0 0 0 0 0 0 0 0 0 0 0 3 3 3 3 0 0 0 0 0 0 0 0 0 0 0 0 0 0 0 0 0 0
0 0 0 0 0 0 0 0 0 0 0 0 0 0 0 0 0 0 0 0 0 0 0 0 0 0 0 0 3 3 3 3 0 0 0 0 0 0 0 0 0 0 0 0 0 0 0 0 0
0 0 0 0 0 0 0 0 0 0 0 0 0 0 0 0 0 0 0 0 0 0 0 0 0 0 0 0 0 3 3 3 0 3 0 0 0 0 0 0 0 0 0 0 0 0 0 0 0
0 0 0 0 0 0 0 0 0 0 0 0 0 0 0 0 0 0 0 0 0 0 0 0 0 0 0 0 0 0 0 0 0 0 3 0 0 0 0 0 3 3 3 0 0 0 0 0 0
0 0 0 0 0 0 0 0 0 0 0 0 0 0 0 0 0 0 0 0 0 0 0 0 0 0 0 0 0 0 0 0 0 0 0 0 0 0 0 0 3 3 3 3 0 0 0 0 0
0 0 0 0 0 0 0 0 0 0 0 0 0 0 0 0 0 0 0 0 0 0 0 0 0 0 0 0 0 0 0 0 0 0 0 0 0 0 0 0 3 3 3 3 0 0 0 0 0
0 0 0 0 0 0 0 0 0 0 0 0 0 0 0 0 0 0 0 0 0 0 0 0 0 0 0 0 0 0 0 0 0 0 0 0 0 0 0 3 3 3 3 3 0 0 0 0 0
0 0 0 0 0 0 0 0 0 0 0 0 0 0 0 0 0 0 0 0 0 0 0 0 0 0 0 0 0 0 0 0 0 0 0 0 0 0 0 0 3 3 3 3 0 0 0 0 0

GEFSSGP_con_cape1000_258.txt.gz
Probability
0 0 0 0 0 0 0 0 0 0 0 0 0 0 0 0 0 0 6 23 32 42 61 74 74 68 68 65 58 55 58 45 42 35 32 32 32 26 23 19 13 10 13 10 13 10 10 10 10
0 0 0 0 0 0 0 0 0 0 0 0 0 0 0 0 0 10 19 35 35 45 58 61 71 68 65 65 55 55 55 42 39 35 35 35 35 39 32 23 13 13 13 13 13 10 10 10 6
0 0 0 0 0 0 0 0 0 0 0 0 0 0 0 0 6 13 32 39 35 45 58 61 71 68 65 61 58 52 48 45 42 35 39 35 39 39 29 23 16 13 13 13 10 10 10 10 6
0 0 0 0 0 0 0 0 0 0 0 0 0 0 0 0 3 16 35 35 32 35 52 61 68 65 61 61 55 52 52 45 42 39 42 39 39 39 29 26 23 16 16 16 10 10 10 10 3
0 0 0 0 0 0 0 0 0 0 0 0 0 0 0 0 13 39 29 32 35 39 52 58 68 61 55 55 52 52 52 42 42 39 42 39 35 29 26 32 26 23 16 16 6 6 6 3 0
0 0 0 0 0 0 0 0 0 0 0 0 0 0 0 6 29 29 29 32 35 42 48 55 58 58 55 52 42 45 42 42 42 42 45 42 35 23 23 26 19 19 23 16 6 6 3 0 0
0 0 0 0 0 0 0 0 0 0 0 0 0 0 0 3 19 26 29 29 32 45 48 45 48 55 55 52 42 39 35 35 39 42 42 45 45 32 19 23 23 23 19 16 10 3 3 0 0
0 0 0 0 0 0 0 0 0 0 0 0 0 0 3 6 10 26 29 32 39 42 39 42 45 32 29 29 32 26 26 29 32 32 29 19 29 32 23 19 19 19 16 16 13 10 6 0 0
0 0 0 0 0 0 0 0 0 0 0 0 0 0 3 3 19 29 29 29 35 29 35 39 26 26 26 29 26 23 23 23 23 16 10 6 3 10 6 6 10 16 13 13 13 10 6 0 0
0 0 0 0 0 0 0 0 0 0 0 0 0 0 3 10 23 29 32 29 29 29 32 29 23 19 16 23 16 13 13 10 10 6 6 3 0 3 3 0 6 6 10 10 6 6 3 0 0
0 0 0 0 0 0 0 0 0 0 0 0 0 3 3 13 19 26 29 29 26 26 26 23 13 13 13 13 10 10 6 6 6 3 0 0 0 0 0 0 0 0 0 0 0 0 0 0 0
0 0 0 0 0 0 0 0 0 0 0 0 3 3 6 13 16 16 19 23 23 19 19 19 10 6 13 13 10 6 6 6 3 0 0 0 0 0 0 0 0 0 0 0 0 0 0 0 0
0 0 0 0 0 0 0 0 0 0 0 0 6 6 6 13 13 13 23 23 23 16 23 16 10 6 10 10 10 10 6 3 3 0 0 0 0 0 0 0 0 0 0 0 0 0 0 0 0
0 0 0 0 0 0 0 0 0 0 0 0 6 6 3 6 10 10 16 23 23 16 16 10 10 3 6 6 6 6 3 0 0 0 0 0 0 0 0 0 0 0 0 0 0 0 0 0 0
0 0 0 0 0 0 0 0 0 0 0 0 3 3 3 3 6 6 13 16 19 16 16 10 10 6 0 0 3 3 3 3 0 0 0 0 0 0 0 0 0 0 0 0 0 0 0 0 0
0 0 0 0 0 0 0 0 0 0 0 0 0 0 0 0 3 3 10 10 6 6 13 10 10 6 3 0 0 0 0 0 0 0 0 0 0 0 0 0 0 0 0 0 0 0 0 0 0
0 0 0 0 0 0 0 0 0 0 0 0 0 0 0 0 0 0 3 6 6 6 10 10 10 10 6 0 0 0 0 0 0 0 0 0 0 0 0 0 0 0 0 0 0 0 0 0 0
0 0 0 0 0 0 0 0 0 0 0 0 0 0 0 0 0 0 0 3 6 6 3 0 0 0 0 0 0 0 0 0 0 0 0 0 0 0 0 0 0 0 0 0 0 0 0 0 0
0 0 0 0 0 0 0 0 0 0 0 0 0 0 0 0 0 0 0 3 0 3 3 0 0 0 0 0 0 0 0 0 0 0 0 0 0 0 0 0 0 0 0 0 0 0 0 0 0
0 0 0 0 0 0 0 0 0 0 0 0 0 0 0 0 0 0 0 0 0 3 3 0 0 0 0 0 0 0 0 0 0 0 0 0 0 0 0 0 0 0 0 0 0 0 0 0 0
0 0 0 0 0 0 0 0 0 0 0 0 0 0 0 0 0 0 0 0 0 3 3 3 0 0 0 0 0 0 0 0 0 0 0 0 0 0 0 0 0 0 0 0 0 0 0 0 0
0 0 0 0 0 0 0 0 0 0 0 0 0 0 0 0 0 0 3 3 3 3 0 0 0 0 0 0 0 0 0 0 0 0 0 0 0 0 0 0 0 0 0 0 0 0 0 0 0
0 0 0 0 0 0 0 0 0 0 0 0 0 0 0 0 0 0 3 3 3 0 0 0 0 0 0 0 0 0 0 0 0 0 0 0 0 0 0 0 0 0 0 0 0 0 0 0 0
0 0 0 0 0 0 0 0 0 0 0 0 0 0 0 0 0 0 0 0 0 0 0 0 0 0 0 0 0 0 0 0 0 0 0 0 0 0 0 0 0 0 0 0 0 0 0 0 0
0 0 0 0 0 0 0 0 0 0 0 0 0 0 0 0 0 0 0 0 0 0 3 3 0 0 0 0 0 0 0 0 0 0 0 0 0 0 0 0 0 0 0 0 0 0 0 0 0
0 0 0 0 0 0 0 0 0 0 0 0 0 0 0 0 0 0 0 0 0 3 3 3 0 0 0 0 0 0 0 0 0 0 0 0 0 0 0 0 0 0 0 0 0 0 0 0 0
0 0 0 0 0 0 0 0 0 0 0 0 0 0 0 0 0 0 0 0 0 0 0 0 0 0 0 0 0 0 0 0 0 0 0 0 0 0 0 0 0 0 0 0 0 0 0 0 0
0 0 0 0 0 0 0 0 0 0 0 0 0 0 0 0 0 0 0 0 0 0 0 0 0 0 0 0 0 0 0 0 0 0 0 0 0 0 0 0 0 0 0 0 0 0 0 0 0
0 0 0 0 0 0 0 0 0 0 0 0 0 0 0 0 0 0 0 0 0 0 0 0 0 0 0 0 0 0 0 0 0 0 0 0 0 0 0 0 0 0 0 0 0 0 0 0 0
0 0 0 0 0 0 0 0 0 0 0 0 0 0 0 0 0 0 0 0 0 0 0 0 0 0 0 0 0 0 0 0 0 0 0 0 0 0 0 0 0 0 0 0 0 0 0 0 0